Location: Kolin
(50.0330°N, 15.2000°E)
Time: 11:05:30
(UTC+02:00)

ISS - Pass Details

Date: 18 May 2021
Orbit: 417 x 422 km, 51.6° (Epoch: 13 June)

Event Time Altitude Azimuth Distance (km) Brightness Sun altitude
Rises 21:16:35 0° 231° (SW) 2,354 0.2 -5.2°
Reaches altitude 10° 21:18:44 10° 224° (SW) 1,494 -0.9 -5.4°
Maximum altitude 21:21:56 43° 151° (SSE) 598 -3.4 -5.8°
Drops below altitude 10° 21:25:09 10° 79° (E) 1,504 -1.3 -6.2°
Sets 21:27:19 0° 73° (ENE) 2,371 -0.2 -6.5°
